Total_Precipitation_Accumulation
0.08 0.13 0.19 0.27 0.32 0.32 0.38 0.51 0.63 0.76 0.81 0.88 0.87 0.85 0.92 0.93 0.87 0.80 0.83 0.94 0.91 0.83 0.84 0.82 0.79 0.75 0.71 0.67 0.62 0.57 0.54 0.51 0.47 0.48 0.47 0.42 0.39 0.38 0.32 0.27 0.25 0.25 0.24
0.09 0.14 0.19 0.25 0.29 0.33 0.38 0.49 0.63 0.74 0.78 0.78 0.84 0.83 0.87 0.89 0.92 0.88 0.88 0.95 1.02 0.96 0.88 0.86 0.86 0.82 0.74 0.69 0.64 0.62 0.65 0.62 0.54 0.52 0.56 0.57 0.53 0.45 0.38 0.33 0.28 0.27 0.28
0.11 0.15 0.19 0.23 0.25 0.30 0.34 0.40 0.56 0.75 0.81 0.79 0.89 0.97 1.04 1.09 1.08 1.01 0.94 0.96 0.99 0.97 0.90 0.83 0.78 0.82 0.80 0.74 0.68 0.64 0.64 0.66 0.61 0.53 0.63 0.75 0.65 0.46 0.38 0.35 0.31 0.28 0.29
0.13 0.18 0.21 0.25 0.27 0.32 0.36 0.38 0.48 0.64 0.84 0.87 0.89 0.95 1.00 1.02 1.06 1.00 0.93 0.93 0.99 1.02 0.96 0.92 0.84 0.78 0.77 0.72 0.68 0.66 0.65 0.70 0.70 0.60 0.54 0.58 0.61 0.65 0.52 0.38 0.36 0.36 0.34
0.16 0.20 0.24 0.29 0.33 0.39 0.46 0.46 0.50 0.58 0.78 0.84 0.84 0.89 0.93 0.95 1.02 1.06 1.00 0.97 1.01 1.07 1.07 1.03 0.97 0.91 0.82 0.72 0.67 0.67 0.69 0.71 0.72 0.67 0.60 0.54 0.48 0.50 0.64 0.52 0.44 0.49 0.46
0.18 0.22 0.27 0.35 0.39 0.44 0.55 0.55 0.58 0.58 0.70 0.86 0.85 0.82 0.86 0.89 0.94 1.00 1.06 1.07 1.05 1.06 1.06 1.06 1.01 0.96 0.94 0.86 0.75 0.71 0.71 0.71 0.71 0.72 0.69 0.67 0.66 0.58 0.61 0.60 0.48 0.48 0.47
0.20 0.25 0.31 0.39 0.40 0.43 0.57 0.59 0.60 0.63 0.64 0.79 0.85 0.80 0.80 0.83 0.84 0.91 0.94 1.01 1.07 1.06 1.06 1.08 1.06 1.01 0.96 0.92 0.87 0.84 0.81 0.78 0.80 0.82 0.79 0.73 0.69 0.66 0.73 0.80 0.67 0.55 0.48
0.18 0.23 0.28 0.35 0.39 0.40 0.50 0.60 0.63 0.65 0.64 0.72 0.86 0.88 0.85 0.87 0.82 0.87 0.93 0.93 0.95 0.97 0.93 0.96 0.99 0.96 0.91 0.89 0.89 0.89 0.85 0.86 0.90 0.88 0.88 0.86 0.77 0.76 0.84 0.94 1.03 0.92 0.64
0.21 0.24 0.26 0.30 0.32 0.38 0.45 0.52 0.64 0.70 0.70 0.70 0.83 0.99 1.04 0.96 0.87 0.83 0.88 0.90 0.88 0.90 0.92 0.91 0.91 0.86 0.83 0.80 0.80 0.81 0.81 0.85 0.88 0.91 0.94 0.95 0.87 0.86 0.87 0.94 1.13 1.37 1.16
0.25 0.28 0.28 0.31 0.32 0.34 0.41 0.46 0.58 0.69 0.74 0.71 0.78 0.93 1.15 1.17 1.03 0.97 0.87 0.85 0.85 0.85 0.86 0.90 0.88 0.87 0.82 0.80 0.80 0.76 0.74 0.79 0.82 0.85 0.92 0.94 0.91 0.88 0.87 0.95 1.00 1.12 1.27
0.20 0.25 0.27 0.34 0.37 0.36 0.40 0.45 0.51 0.61 0.69 0.67 0.72 0.82 0.99 1.22 1.23 1.13 1.01 0.88 0.83 0.81 0.80 0.82 0.84 0.84 0.85 0.85 0.89 0.84 0.76 0.78 0.81 0.83 0.86 0.87 0.88 0.93 0.89 0.93 0.97 0.96 1.02
0.17 0.20 0.24 0.32 0.37 0.38 0.40 0.43 0.48 0.56 0.63 0.65 0.68 0.77 0.85 1.03 1.25 1.19 1.06 0.94 0.87 0.84 0.83 0.82 0.85 0.84 0.86 0.88 0.92 0.89 0.80 0.78 0.80 0.82 0.82 0.82 0.82 0.87 0.84 0.85 0.86 0.84 0.80
0.17 0.20 0.25 0.30 0.34 0.40 0.43 0.42 0.45 0.52 0.57 0.64 0.68 0.70 0.79 0.87 0.98 1.13 1.09 0.99 0.93 0.88 0.85 0.85 0.87 0.92 0.93 0.90 0.86 0.89 0.85 0.80 0.79 0.81 0.84 0.82 0.84 0.87 0.81 0.82 0.79 0.72 0.67
0.18 0.23 0.26 0.28 0.32 0.39 0.46 0.45 0.48 0.51 0.50 0.57 0.65 0.64 0.65 0.73 0.78 0.90 1.08 1.09 1.01 0.92 0.84 0.82 0.86 0.96 1.12 1.11 1.00 1.04 0.97 0.86 0.80 0.76 0.75 0.80 0.91 0.91 0.89 0.91 0.80 0.74 0.77
0.17 0.24 0.27 0.28 0.33 0.42 0.50 0.53 0.49 0.45 0.42 0.47 0.55 0.61 0.65 0.72 0.75 0.76 0.87 1.05 1.03 0.90 0.81 0.78 0.81 0.91 1.25 1.61 1.55 1.46 1.22 0.95 0.79 0.71 0.72 0.79 0.93 0.98 1.10 1.19 1.06 1.03 1.12
0.21 0.24 0.29 0.28 0.34 0.42 0.51 0.60 0.53 0.47 0.40 0.43 0.50 0.56 0.65 0.78 0.80 0.75 0.79 0.89 0.98 0.94 0.86 0.80 0.78 0.82 1.09 1.66 1.78 1.48 1.09 0.91 0.81 0.75 0.71 0.73 0.85 0.89 0.97 1.11 1.18 1.25 1.37
0.26 0.27 0.30 0.34 0.39 0.42 0.49 0.58 0.56 0.51 0.44 0.44 0.50 0.55 0.58 0.72 0.79 0.79 0.83 0.86 0.90 0.97 0.99 0.87 0.78 0.75 0.90 1.45 1.59 1.29 0.96 0.83 0.78 0.74 0.72 0.72 0.79 0.86 0.85 0.93 0.96 0.99 1.13
0.27 0.28 0.32 0.38 0.39 0.41 0.43 0.49 0.52 0.50 0.48 0.48 0.53 0.58 0.55 0.60 0.73 0.83 0.84 0.85 0.86 0.88 0.94 0.93 0.84 0.77 0.80 1.27 1.43 1.19 0.93 0.81 0.73 0.68 0.70 0.69 0.72 0.83 1.01 1.00 0.94 0.84 0.87
0.27 0.29 0.32 0.37 0.38 0.38 0.37 0.44 0.50 0.48 0.50 0.55 0.58 0.58 0.53 0.54 0.64 0.73 0.81 0.83 0.84 0.80 0.81 0.85 0.84 0.79 0.76 1.05 1.29 1.15 0.91 0.84 0.76 0.67 0.66 0.67 0.67 0.86 1.12 1.10 0.97 0.80 0.72
0.23 0.27 0.30 0.31 0.34 0.37 0.37 0.42 0.47 0.43 0.47 0.51 0.57 0.54 0.48 0.45 0.46 0.56 0.71 0.78 0.80 0.77 0.75 0.77 0.79 0.74 0.68 0.88 1.13 1.15 0.91 0.83 0.78 0.74 0.69 0.76 0.84 0.98 1.12 1.06 1.01 1.08 0.89
0.20 0.23 0.26 0.29 0.36 0.39 0.35 0.39 0.45 0.45 0.46 0.50 0.55 0.50 0.46 0.46 0.45 0.51 0.64 0.73 0.81 0.83 0.76 0.73 0.75 0.72 0.69 0.79 0.96 1.16 0.99 0.84 0.80 0.80 0.76 0.72 0.90 0.98 1.04 1.09 1.07 1.27 1.19
0.17 0.16 0.20 0.25 0.31 0.34 0.34 0.40 0.46 0.47 0.49 0.50 0.47 0.47 0.48 0.48 0.49 0.52 0.60 0.71 0.80 0.86 0.81 0.72 0.72 0.70 0.70 0.79 0.93 1.10 1.11 1.00 0.83 0.75 0.66 0.69 0.89 0.97 1.04 1.02 1.09 1.20 1.17
0.18 0.17 0.19 0.22 0.28 0.31 0.34 0.41 0.47 0.44 0.47 0.47 0.45 0.43 0.46 0.48 0.49 0.55 0.62 0.71 0.78 0.82 0.81 0.73 0.69 0.68 0.66 0.78 0.98 0.97 1.01 1.05 0.89 0.75 0.82 0.88 0.98 0.97 0.90 0.92 1.00 0.99 0.94
0.19 0.18 0.20 0.23 0.29 0.32 0.33 0.39 0.43 0.40 0.38 0.39 0.42 0.40 0.44 0.49 0.53 0.58 0.62 0.67 0.77 0.84 0.77 0.70 0.66 0.63 0.66 0.84 1.00 0.95 0.93 0.99 0.98 0.92 0.95 1.01 0.99 0.89 0.78 0.79 0.80 0.77 0.85
0.22 0.21 0.22 0.24 0.30 0.34 0.37 0.40 0.39 0.37 0.36 0.36 0.42 0.48 0.50 0.54 0.58 0.61 0.63 0.67 0.69 0.83 0.81 0.70 0.69 0.73 0.82 0.98 1.10 1.07 1.00 0.99 1.00 1.11 1.18 1.10 1.00 0.93 0.81 0.69 0.62 0.65 0.78
0.26 0.24 0.24 0.26 0.31 0.36 0.42 0.43 0.37 0.34 0.36 0.40 0.43 0.50 0.54 0.56 0.57 0.56 0.59 0.68 0.70 0.74 0.73 0.69 0.70 0.69 0.84 0.97 1.02 1.08 1.10 1.12 1.19 1.25 1.19 0.98 0.84 0.80 0.76 0.71 0.67 0.62 0.64